Weather in Brodetske

Ukraine / Vinnytsia Region     49°45′27″N   28°37′25″E
temp.,
°C
wind,
m/s
gust,
m/s
humid.,
%
clouds,
%
prec.,
mm/h
press.,
hPa
HPBL,
m
24 may, tue
tue2400:00+8nnw11845 0.0 101310
03:00+6nne12755 0.0 101310
06:00+6nnw22744 0.0 101411
09:00+12nne34580 0.0 1014352
12:00+16ne33465 0.0 10141579
15:00+17e22445 0.0 10141807
18:00+17se214813 0.0 10141721
21:00+11sse33600 0.0 101518
25 may, wed
wed2500:00+10sse2260100 0.0 101713
03:00+9sse3362100 0.0 101828
06:00+8sse356835 0.0 101870
09:00+15sse465787 0.0 1018363
12:00+19sse5549100 0.0 10171440
15:00+19sse3652100 0.0 10161604
18:00+14ese4689100 0.9 1016123
21:00+14ese5118886 0.9 1014254
26 may, thu
thu2600:00+13sse5138894 0.0 1013293
03:00+13ssw61388100 0.6 1012395
06:00+14wnw51197100 0.9 1011753
09:00+13nw8128994 1.0 1014858
12:00+17nw912603 0.1 10161594
15:00+18wnw8116165 0.1 10161793
18:00+18wnw71064100 0.6 10161540
21:00+13w48824 0.6 1017137
27 may, fri
fri2700:00+11wsw411875 0.0 1017204
03:00+11w514865 0.0 1017307
06:00+10w512905 0.0 1017310
09:00+16wnw610720 0.0 1016968
12:00+19w68565 0.0 10151639
15:00+20sw71061100 0.0 10131825
18:00+19sw6116938 0.0 1010919
21:00+15ssw411895 0.8 1009187
28 may, sat
sat2800:00+12nnw7119396 1.1 1010602
03:00+10w61293100 3.6 1011794
06:00+9w5129341 0.0 1011489
09:00+12w797420 0.1 10111054
12:00+15w7105399 0.0 10111881
15:00+15wnw8125220 0.0 10112164
18:00+15w511539 0.0 10112229
21:00+10w3877100 0.2 1013236